This demonstration page uses our WeatherBlox Daily Observations layout. Learn more.

Left ArrowRight Arrow

39.01783, -85.05884

Hourly Observations for March 28, 2022

Temp ( °F °C ) Dew Point ( °F °C ) Humidity (%) Winds ( mph kmh ) Pressure ( in mb ) Visibility ( mi km ) Precip ( " mm )
12:52 am 00:52 Clear 27 -2.8 16 -8.9 63 63 N 7 11 30.17 1022 10 16 0.00 0.00
1:52 am 01:52 Clear 26 -3.3 15 -9.4 63 63 N 6 9 30.17 1022 10 16 0.00 0.00
2:52 am 02:52 Clear 25 -3.9 17 -8.3 72 72 N 7 11 30.18 1022 10 16 0.00 0.00
3:52 am 03:52 Clear 25 -3.9 17 -8.3 72 72 N 6 9 30.18 1022 10 16 0.00 0.00
4:52 am 04:52 Clear 24 -4.4 15 -9.4 68 68 N 5 7 30.18 1022 10 16 0.00 0.00
5:52 am 05:52 Clear 24 -4.4 13 -10.6 62 62 N 3 6 30.19 1022 10 16 0.00 0.00
6:52 am 06:52 Clear 21 -6.1 15 -9.4 78 78 WSW 3 6 30.21 1023 10 16 0.00 0.00
7:52 am 07:52 Sunny 24 -4.4 14 -10 65 65 Calm 30.22 1024 10 16 0.00 0.00
8:52 am 08:52 Sunny 27 -2.8 13 -10.6 55 55 Calm 30.24 1024 10 16 0.00 0.00
9:52 am 09:52 Sunny 29 -1.7 14 -10 54 54 WNW 3 6 30.26 1025 10 16 0.00 0.00
10:52 am 10:52 Sunny 33 0.6 11 -11.7 40 40 NNW 9 15 30.27 1025 10 16 0.00 0.00
11:52 am 11:52 Mostly Sunny 34 1.1 12 -11.1 40 40 WNW 10 17 30.27 1025 10 16 0.00 0.00
12:52 pm 12:52 Mostly Cloudy 38 3.3 12 -11.1 34 34 NNW 14 22 30.27 1025 10 16 0.00 0.00
1:52 pm 13:52 Mostly Cloudy 39 3.9 14 -10 36 36 N 10 17 30.26 1025 10 16 0.00 0.00
2:52 pm 14:52 Mostly Cloudy 41 5 15 -9.4 35 35 N 10 17 30.25 1025 10 16 0.00 0.00
3:52 pm 15:52 Partly Cloudy 42 5.6 15 -9.4 33 33 N 13 20 30.23 1024 10 16 0.00 0.00
4:52 pm 16:52 Mostly Cloudy 43 6.1 15 -9.4 32 32 W 7 11 30.22 1023 10 16 0.00 0.00
5:52 pm 17:52 Mostly Cloudy 42 5.6 15 -9.4 33 33 NW 7 11 30.22 1023 10 16 0.00 0.00
6:52 pm 18:52 Cloudy 41 5 16 -8.9 36 36 NNE 7 11 30.23 1024 10 16 0.00 0.00
7:52 pm 19:52 Cloudy 39 3.9 15 -9.4 38 38 N 9 15 30.23 1024 10 16 0.00 0.00
8:52 pm 20:52 Cloudy 37 2.8 17 -8.3 44 44 N 7 11 30.24 1024 10 16 0.00 0.00
9:52 pm 21:52 Mostly Cloudy 36 2.2 18 -7.8 48 48 NNE 9 15 30.26 1025 10 16 0.00 0.00
10:52 pm 22:52 Mostly Cloudy 35 1.7 15 -9.4 44 44 NNE 8 13 30.27 1025 10 16 0.00 0.00
11:52 pm 23:52 Partly Cloudy 34 1.1 17 -8.3 50 50 ENE 8 13 30.27 1025 10 16 0.00 0.00

Powered by AerisWeather